• In Hungary
  • List of Countries
  • For 7 days
  • Water Temperature
  • Satellite Maps
  • Weather Map
  • News
  • Weather Widgets
  • user-avatar
    Login

    Hourly Weather Andrychów

    Today, 21 September, Friday

    Time Temperature Precipitation Wind Pressure Humidity
    00:00 +17°C° 0 mm 2 mps 732 mmHg 66%
    01:00 +16°C° 0 mm 2 mps 732 mmHg 67%
    02:00 +16°C° 0 mm 2 mps 732 mmHg 67%
    03:00 +16°C° 0 mm 2 mps 732 mmHg 68%
    04:00 +15°C° 0 mm 2 mps 732 mmHg 69%
    05:00 +16°C° 0 mm 2 mps 732 mmHg 68%
    06:00 +17°C° 0 mm 2 mps 732 mmHg 67%
    07:00 +18°C° 0 mm 2 mps 732 mmHg 66%
    08:00 +20°C° 0 mm 2 mps 731 mmHg 58%
    09:00 +24°C° 0 mm 3 mps 731 mmHg 50%
    10:00 +26°C° 0 mm 3 mps 731 mmHg 42%
    11:00 +27°C° 0 mm 4 mps 731 mmHg 40%
    12:00 +27°C° 0 mm 4 mps 730 mmHg 39%
    13:00 +28°C° 0 mm 5 mps 730 mmHg 37%
    14:00 +27°C° 0 mm 4 mps 730 mmHg 39%
    15:00 +27°C° 0 mm 4 mps 729 mmHg 42%
    16:00 +26°C° 0 mm 4 mps 729 mmHg 44%
    17:00 +24°C° 0 mm 3 mps 729 mmHg 50%
    18:00 +21°C° 0 mm 3 mps 728 mmHg 56%
    19:00 +19°C° 0 mm 3 mps 728 mmHg 62%
    20:00 +19°C° 0 mm 3 mps 728 mmHg 62%
    21:00 +19°C° 0 mm 3 mps 728 mmHg 61%
    22:00 +18°C° 0 mm 3 mps 728 mmHg 61%
    23:00 +18°C° 0.1 mm 3 mps 728 mmHg 63%

    Tomorrow, 22 September, Saturday

    Time Temperature Precipitation Wind Pressure Humidity
    00:00 +18°C° 0.1 mm 3 mps 729 mmHg 64%
    01:00 +19°C° 0.1 mm 3 mps 729 mmHg 66%
    02:00 +17°C° 0.4 mm 3 mps 730 mmHg 72%
    03:00 +15°C° 0.4 mm 4 mps 730 mmHg 78%
    04:00 +13°C° 0.4 mm 4 mps 731 mmHg 84%
    05:00 +13°C° 0.3 mm 3 mps 731 mmHg 84%
    06:00 +13°C° 0.3 mm 2 mps 732 mmHg 84%
    07:00 +13°C° 0.3 mm 2 mps 732 mmHg 85%
    08:00 +13°C° 0.4 mm 2 mps 733 mmHg 82%
    09:00 +13°C° 0.4 mm 2 mps 733 mmHg 79%
    10:00 +12°C° 0.4 mm 3 mps 733 mmHg 77%
    11:00 +13°C° 0 mm 3 mps 733 mmHg 69%
    12:00 +14°C° 0 mm 3 mps 733 mmHg 61%
    13:00 +15°C° 0 mm 4 mps 733 mmHg 53%
    14:00 +17°C° 0 mm 4 mps 733 mmHg 51%
    15:00 +17°C° 0 mm 4 mps 733 mmHg 49%
    16:00 +17°C° 0 mm 4 mps 733 mmHg 48%
    17:00 +15°C° 0 mm 4 mps 733 mmHg 53%
    18:00 +13°C° 0 mm 3 mps 733 mmHg 57%
    19:00 +12°C° 0 mm 3 mps 733 mmHg 62%
    20:00 +12°C° 0 mm 3 mps 733 mmHg 66%
    21:00 +11°C° 0 mm 3 mps 734 mmHg 69%
    22:00 +10°C° 0 mm 3 mps 734 mmHg 72%
    23:00 +10°C° 0 mm 3 mps 734 mmHg 74%

    Day after tomorrow, 23 September, Sunday

    Time Temperature Precipitation Wind Pressure Humidity
    00:00 +9°C° 0 mm 3 mps 734 mmHg 75%
    01:00 +9°C° 0 mm 2 mps 734 mmHg 77%
    02:00 +9°C° 0 mm 2 mps 734 mmHg 78%
    03:00 +8°C° 0 mm 2 mps 734 mmHg 80%
    04:00 +8°C° 0 mm 2 mps 734 mmHg 81%
    05:00 +8°C° 0 mm 3 mps 734 mmHg 80%
    06:00 +9°C° 0 mm 3 mps 734 mmHg 78%
    07:00 +10°C° 0 mm 3 mps 735 mmHg 76%
    08:00 +11°C° 0 mm 3 mps 735 mmHg 67%
    09:00 +13°C° 0 mm 4 mps 735 mmHg 59%
    10:00 +15°C° 0 mm 4 mps 735 mmHg 50%
    11:00 +17°C° 0 mm 4 mps 735 mmHg 49%
    12:00 +16°C° 0 mm 5 mps 734 mmHg 47%
    13:00 +17°C° 0 mm 5 mps 734 mmHg 46%
    14:00 +16°C° 0 mm 5 mps 733 mmHg 47%
    15:00 +16°C° 0 mm 5 mps 733 mmHg 49%
    16:00 +17°C° 0 mm 4 mps 732 mmHg 51%
    17:00 +15°C° 0 mm 4 mps 732 mmHg 57%
    18:00 +14°C° 0 mm 3 mps 731 mmHg 63%
    19:00 +12°C° 0 mm 3 mps 731 mmHg 68%
    20:00 +13°C° 0 mm 3 mps 730 mmHg 70%
    21:00 +13°C° 0 mm 4 mps 730 mmHg 72%
    22:00 +13°C° 0 mm 4 mps 729 mmHg 74%
    23:00 +13°C° 0 mm 5 mps 728 mmHg 72%

    24 September, Monday

    Time Temperature Precipitation Wind Pressure Humidity
    00:00 +14°C° 0 mm 5 mps 727 mmHg 70%
    01:00 +14°C° 0 mm 5 mps 725 mmHg 68%
    02:00 +14°C° 0 mm 5 mps 724 mmHg 67%
    03:00 +15°C° 0 mm 5 mps 723 mmHg 67%
    04:00 +15°C° 0 mm 5 mps 721 mmHg 67%
    05:00 +15°C° 1.2 mm 6 mps 721 mmHg 71%
    06:00 +15°C° 1.2 mm 6 mps 721 mmHg 75%
    07:00 +15°C° 1.2 mm 7 mps 720 mmHg 78%
    08:00 +15°C° 0.9 mm 9 mps 720 mmHg 77%
    09:00 +14°C° 0.9 mm 10 mps 719 mmHg 75%
    10:00 +14°C° 0.9 mm 12 mps 719 mmHg 73%
    11:00 +13°C° 0.2 mm 12 mps 720 mmHg 71%
    12:00 +12°C° 0.2 mm 13 mps 721 mmHg 69%
    13:00 +9°C° 0.2 mm 14 mps 723 mmHg 66%
    14:00 +9°C° 0.1 mm 13 mps 724 mmHg 65%
    15:00 +9°C° 0.1 mm 12 mps 726 mmHg 64%
    16:00 +8°C° 0.1 mm 11 mps 727 mmHg 62%
    17:00 +8°C° 0 mm 11 mps 729 mmHg 63%
    18:00 +8°C° 0 mm 10 mps 730 mmHg 64%
    19:00 +7°C° 0 mm 9 mps 731 mmHg 65%
    20:00 +7°C° 0.1 mm 8 mps 732 mmHg 66%
    21:00 +6°C° 0.1 mm 7 mps 733 mmHg 67%
    22:00 +5°C° 0.1 mm 7 mps 734 mmHg 68%
    23:00 +5°C° 0 mm 6 mps 734 mmHg 69%

    25 September, Tuesday

    Time Temperature Precipitation Wind Pressure Humidity
    00:00 +5°C° 0 mm 5 mps 735 mmHg 70%
    01:00 +5°C° 0 mm 4 mps 736 mmHg 71%
    02:00 +5°C° 0 mm 5 mps 736 mmHg 72%
    03:00 +3°C° 0 mm 5 mps 737 mmHg 73%
    04:00 +3°C° 0 mm 5 mps 737 mmHg 74%
    05:00 +3°C° 0 mm 6 mps 738 mmHg 72%
    06:00 +4°C° 0 mm 6 mps 739 mmHg 69%
    07:00 +4°C° 0 mm 6 mps 739 mmHg 66%
    08:00 +5°C° 0 mm 6 mps 740 mmHg 60%
    09:00 +6°C° 0 mm 7 mps 740 mmHg 54%
    10:00 +8°C° 0 mm 7 mps 741 mmHg 48%
    11:00 +9°C° 0 mm 7 mps 740 mmHg 46%
    12:00 +10°C° 0 mm 7 mps 740 mmHg 43%
    13:00 +11°C° 0 mm 6 mps 740 mmHg 41%
    14:00 +10°C° 0 mm 6 mps 740 mmHg 44%
    15:00 +10°C° 0 mm 6 mps 740 mmHg 47%
    16:00 +10°C° 0 mm 6 mps 739 mmHg 49%
    17:00 +9°C° 0 mm 5 mps 739 mmHg 53%
    18:00 +8°C° 0 mm 4 mps 739 mmHg 56%
    19:00 +7°C° 0 mm 4 mps 739 mmHg 59%
    20:00 +7°C° 0 mm 4 mps 739 mmHg 63%
    21:00 +6°C° 0 mm 4 mps 738 mmHg 66%
    22:00 +6°C° 0 mm 5 mps 738 mmHg 70%
    23:00 +6°C° 0.7 mm 5 mps 737 mmHg 75%

    26 September, Wednesday

    Time Temperature Precipitation Wind Pressure Humidity
    00:00 +6°C° 0.7 mm 5 mps 737 mmHg 80%
    01:00 +5°C° 0.7 mm 6 mps 736 mmHg 85%
    02:00 +6°C° 1.1 mm 5 mps 736 mmHg 86%
    03:00 +6°C° 1.1 mm 5 mps 736 mmHg 87%
    04:00 +6°C° 1.1 mm 5 mps 736 mmHg 89%
    05:00 +6°C° 0 mm 5 mps 737 mmHg 87%
    06:00 +6°C° 0 mm 5 mps 737 mmHg 86%
    07:00 +6°C° 0 mm 4 mps 738 mmHg 84%
    08:00 +7°C° 0.1 mm 5 mps 738 mmHg 78%
    09:00 +8°C° 0.1 mm 5 mps 739 mmHg 72%
    10:00 +9°C° 0.1 mm 5 mps 739 mmHg 65%
    11:00 +10°C° 0 mm 5 mps 740 mmHg 61%
    12:00 +12°C° 0 mm 4 mps 740 mmHg 57%
    13:00 +12°C° 0 mm 4 mps 740 mmHg 53%
    14:00 +12°C° 0 mm 4 mps 740 mmHg 52%
    15:00 +12°C° 0 mm 4 mps 740 mmHg 51%
    16:00 +12°C° 0 mm 3 mps 740 mmHg 50%
    17:00 +12°C° 0 mm 2 mps 741 mmHg 56%
    18:00 +9°C° 0 mm 2 mps 741 mmHg 62%
    19:00 +8°C° 0 mm 1 mps 741 mmHg 67%
    20:00 +8°C° 0 mm 1 mps 741 mmHg 69%
    21:00 +8°C° 0 mm 1 mps 741 mmHg 71%
    22:00 +7°C° 0 mm 1 mps 742 mmHg 73%
    23:00 +7°C° 0 mm 1 mps 742 mmHg 76%
    Show more